Thomson, GA

5:51 PM EST on January 21, 2017 (GMT -0500)
Thomson

Weather History for KHQU - January, 2014

Change the Weather History Date:

Wednesday, January 22, 2014

  Actual Average (KDNL) Record (KDNL)
Temperature  
Mean Temperature 30 °F -  
Max Temperature 40 °F 53 °F 73 °F (1999)
Min Temperature 21 °F 36 °F 25 °F (2014)
Degree Days  
Heating Degree Days 35    
Moisture  
Dew Point 11 °F    
Average Humidity 49    
Maximum Humidity 74    
Minimum Humidity 25    
Precipitation  
Precipitation 0.00 in - - ()
Sea Level Pressure  
Sea Level Pressure 30.09 in    
Wind  
Wind Speed 8 mph (West)    
Max Wind Speed 14 mph    
Max Gust Speed 22 mph    
Visibility 10 miles    
Events      
Averages and records for this station are not official NWS values.
T = Trace of Precipitation, MM = Missing Value Source: NWS Daily Summary

Daily Weather History Graph

Daily Weather History Graph

Search for Another Location

Airport or City:

Trip Planner

Search our weather history database for the weather conditions in past years. The results will help you decide how hot, cold, wet, or windy it might be!

Date:

Astronomy

Jan. 22, 2014 Rise Set
Actual Time 7:31 AM EST 5:51 PM EST
Civil Twilight 7:05 AM EST 6:18 PM EST
Nautical Twilight 6:35 AM EST 6:48 PM EST
Astronomical Twilight 6:05 AM EST 7:18 PM EST
Moon No Moon Rise 10:52 AM EST (1/22)
Length of Visible Light 11h 13m
Length of Day
10h 19m
Waning Gibbous, 65% of the Moon is Illuminated
Jan 22
Waning Gibbous
Jan 24
Last Quarter
Jan 30
New
Feb 6
First Quarter
Feb 14
Full

Hourly Weather History & Observations

Time (EST) Temp. Windchill Dew Point Humidity Pressure Visibility Wind Dir Wind Speed Gust Speed Precip Events Conditions
12:15 AM 28.9 °F 18.6 °F 21.6 °F 74% 29.97 in 10.0 mi WNW 12.7 mph - N/A   Clear
12:35 AM 28.4 °F 18.5 °F 21.2 °F 74% 29.98 in 10.0 mi West 11.5 mph 17.3 mph N/A   Clear
12:55 AM 28.4 °F 17.5 °F 20.5 °F 72% 29.98 in 10.0 mi WNW 13.8 mph 19.6 mph N/A   Clear
1:15 AM 28.0 °F 20.8 °F 19.4 °F 70% 29.99 in 10.0 mi WNW 6.9 mph - N/A   Clear
1:35 AM 27.3 °F 19.9 °F 20.1 °F 74% 29.99 in 10.0 mi WNW 6.9 mph - N/A   Clear
1:55 AM 27.3 °F 17.7 °F 19.4 °F 72% 29.99 in 10.0 mi WNW 10.4 mph 17.3 mph N/A   Clear
2:15 AM 27.0 °F 18.0 °F 17.8 °F 68% 29.99 in 10.0 mi WNW 9.2 mph 19.6 mph N/A   Clear
2:35 AM 26.6 °F 18.2 °F 17.2 °F 68% 30.01 in 10.0 mi NW 8.1 mph 21.9 mph N/A   Clear
2:55 AM 26.4 °F 15.5 °F 16.5 °F 66% 30.01 in 10.0 mi NW 12.7 mph 18.4 mph N/A   Clear
3:15 AM 26.1 °F 14.5 °F 16.2 °F 66% 30.02 in 10.0 mi NW 13.8 mph 21.9 mph N/A   Clear
3:35 AM 25.5 °F 18.7 °F 16.0 °F 67% 30.03 in 10.0 mi West 5.8 mph - N/A   Clear
3:55 AM 25.2 °F 18.3 °F 15.6 °F 67% 30.03 in 10.0 mi WNW 5.8 mph - N/A   Clear
4:15 AM 24.8 °F 19.1 °F 15.4 °F 68% 30.03 in 10.0 mi WNW 4.6 mph - N/A   Clear
4:55 AM 23.9 °F 15.8 °F 14.9 °F 69% 30.04 in 10.0 mi WNW 6.9 mph - N/A   Clear
5:15 AM 23.5 °F 14.5 °F 14.9 °F 70% 30.04 in 10.0 mi WNW 8.1 mph - N/A   Clear
5:35 AM 23.2 °F 17.2 °F 14.7 °F 70% 30.05 in 10.0 mi WNW 4.6 mph - N/A   Clear
5:55 AM 22.8 °F 13.6 °F 14.7 °F 71% 30.06 in 10.0 mi WNW 8.1 mph - N/A   Clear
6:15 AM 22.6 °F 13.4 °F 14.5 °F 71% 30.07 in 10.0 mi WNW 8.1 mph - N/A   Clear
6:35 AM 22.1 °F 12.8 °F 14.5 °F 73% 30.08 in 10.0 mi West 8.1 mph - N/A   Clear
6:55 AM 22.1 °F 12.8 °F 14.4 °F 72% 30.08 in 10.0 mi West 8.1 mph - N/A   Clear
7:15 AM 21.7 °F 13.2 °F 14.0 °F 72% 30.09 in 10.0 mi WNW 6.9 mph - N/A   Clear
7:35 AM 21.6 °F 13.0 °F 14.0 °F 73% 30.10 in 10.0 mi WNW 6.9 mph - N/A   Clear
7:55 AM 21.9 °F 13.4 °F 14.0 °F 72% 30.11 in 10.0 mi WNW 6.9 mph - N/A   Clear
8:15 AM 22.5 °F 13.2 °F 14.0 °F 70% 30.10 in 10.0 mi WNW 8.1 mph - N/A   Clear
8:35 AM 23.4 °F 14.3 °F 14.7 °F 70% 30.11 in 10.0 mi West 8.1 mph - N/A   Clear
8:55 AM 24.1 °F 16.0 °F 14.9 °F 68% 30.12 in 10.0 mi West 6.9 mph - N/A   Clear
9:15 AM 24.6 °F 15.1 °F 14.2 °F 65% 30.13 in 10.0 mi West 9.2 mph - N/A   Clear
9:35 AM 25.3 °F 15.3 °F 13.5 °F 61% 30.14 in 10.0 mi WNW 10.4 mph - N/A   Clear
9:55 AM 26.2 °F 17.1 °F 12.9 °F 57% 30.14 in 10.0 mi WNW 9.2 mph - N/A   Clear
10:15 AM 27.0 °F 20.5 °F 12.0 °F 53% 30.15 in 10.0 mi NW 5.8 mph - N/A   Clear
10:35 AM 28.4 °F 21.2 °F 11.8 °F 50% 30.15 in 10.0 mi West 6.9 mph - N/A   Clear
10:55 AM 29.3 °F 23.2 °F 11.7 °F 48% 30.16 in 10.0 mi West 5.8 mph - N/A   Clear
11:15 AM 30.2 °F 22.6 °F 11.3 °F 45% 30.15 in 10.0 mi WNW 8.1 mph - N/A   Clear
11:35 AM 31.1 °F 24.5 °F 10.8 °F 43% 30.14 in 10.0 mi WNW 6.9 mph - N/A   Clear
11:55 AM 31.5 °F 26.8 °F 9.9 °F 41% 30.13 in 10.0 mi West 4.6 mph - N/A   Clear
12:15 PM 32.0 °F 27.5 °F 9.9 °F 40% 30.12 in 10.0 mi West 4.6 mph - N/A   Clear
12:35 PM 33.1 °F 26.1 °F 9.1 °F 37% 30.11 in 10.0 mi WNW 8.1 mph - N/A   Clear
12:55 PM 33.3 °F 27.9 °F 8.2 °F 35% 30.09 in 10.0 mi NNW 5.8 mph - N/A   Clear
1:15 PM 34.7 °F 29.6 °F 7.3 °F 32% 30.09 in 10.0 mi West 5.8 mph - N/A   Clear
1:35 PM 35.6 °F 29.9 °F 8.1 °F 32% 30.09 in 10.0 mi WSW 6.9 mph - N/A   Clear
1:55 PM 36.5 °F 31.0 °F 7.0 °F 29% 30.08 in 10.0 mi WNW 6.9 mph - N/A   Clear
2:15 PM 37.8 °F 32.5 °F 7.3 °F 28% 30.07 in 10.0 mi NW 6.9 mph - N/A   Clear
2:35 PM 38.3 °F 31.9 °F 7.2 °F 28% 30.07 in 10.0 mi West 9.2 mph - N/A   Clear
2:55 PM 38.8 °F 34.6 °F 8.1 °F 28% 30.06 in 10.0 mi SW 5.8 mph - N/A   Clear
3:15 PM 39.2 °F 34.2 °F 8.1 °F 28% 30.06 in 10.0 mi West 6.9 mph - N/A   Clear
3:35 PM 39.6 °F 34.7 °F 7.3 °F 26% 30.06 in 10.0 mi SW 6.9 mph - N/A   Clear
3:55 PM 39.6 °F 35.4 °F 6.6 °F 26% 30.07 in 10.0 mi WSW 5.8 mph - N/A   Clear
4:15 PM 39.4 °F 33.8 °F 6.1 °F 25% 30.08 in 10.0 mi WSW 8.1 mph - N/A   Clear
4:35 PM 39.4 °F 34.5 °F 6.3 °F 25% 30.08 in 10.0 mi WSW 6.9 mph - N/A   Clear
4:55 PM 38.8 °F 33.8 °F 5.9 °F 25% 30.08 in 10.0 mi West 6.9 mph - N/A   Clear
5:15 PM 38.1 °F 31.7 °F 5.5 °F 26% 30.09 in 10.0 mi West 9.2 mph - N/A   Clear
5:35 PM 37.4 °F 32.8 °F 5.5 °F 27% 30.10 in 10.0 mi West 5.8 mph - N/A   Clear
5:55 PM 34.5 °F 30.4 °F 6.4 °F 31% 30.10 in 10.0 mi WSW 4.6 mph - N/A   Clear
6:15 PM 32.7 °F 27.3 °F 6.4 °F 33% 30.11 in 10.0 mi WSW 5.8 mph - N/A   Clear
6:35 PM 33.4 °F 29.1 °F 5.9 °F 31% 30.11 in 10.0 mi West 4.6 mph - N/A   Clear
6:55 PM 32.4 °F 26.0 °F 6.4 °F 34% 30.13 in 10.0 mi West 6.9 mph - N/A   Clear
7:15 PM 31.8 °F 27.3 °F 6.4 °F 34% 30.13 in 10.0 mi WSW 4.6 mph - N/A   Clear
7:35 PM 31.5 °F 26.8 °F 6.4 °F 35% 30.14 in 10.0 mi WSW 4.6 mph - N/A   Clear
7:55 PM 30.9 °F 27.5 °F 6.4 °F 36% 30.14 in 10.0 mi WSW 3.5 mph - N/A   Clear
8:15 PM 31.3 °F 26.6 °F 6.1 °F 35% 30.15 in 10.0 mi West 4.6 mph - N/A   Clear
8:35 PM 30.7 °F 27.3 °F 5.0 °F 34% 30.15 in 10.0 mi West 3.5 mph - N/A   Clear
8:55 PM 29.7 °F 23.7 °F 6.1 °F 37% 30.16 in 10.0 mi West 5.8 mph - N/A   Clear
9:15 PM 30.0 °F 26.5 °F 4.8 °F 34% 30.16 in 10.0 mi West 3.5 mph - N/A   Clear
9:35 PM 30.0 °F 26.5 °F 4.3 °F 34% 30.17 in 10.0 mi West 3.5 mph - N/A   Clear
9:55 PM 29.1 °F 25.4 °F 5.0 °F 36% 30.18 in 10.0 mi West 3.5 mph - N/A   Clear
10:15 PM 29.1 °F 23.0 °F 4.8 °F 36% 30.18 in 10.0 mi WNW 5.8 mph - N/A   Clear
10:35 PM 28.8 °F 23.7 °F 5.4 °F 37% 30.19 in 10.0 mi West 4.6 mph - N/A   Clear
10:55 PM 28.0 °F 24.2 °F 5.5 °F 38% 30.19 in 10.0 mi West 3.5 mph - N/A   Clear
11:15 PM 28.4 °F - 5.0 °F 37% 30.19 in 10.0 mi Calm Calm - N/A   Clear
11:35 PM 27.0 °F 23.0 °F 6.3 °F 42% 30.20 in 10.0 mi WSW 3.5 mph - N/A   Clear
11:55 PM 26.6 °F 21.2 °F 6.4 °F 42% 30.20 in 10.0 mi West 4.6 mph - N/A   Clear